Tracking 18710 objects as of 29-June-2017
HD Live streaming from Space Station
objects crossing your sky now

COSMOS 2087

Track COSMOS 2087 now!
COSMOS 2087 is classified as:


NORAD ID: 20707
Int'l Code: 1990-064A
Perigee: 4,127.9 km
Apogee: 36,196.8 km
Inclination: 68.7 °
Period: 716.9 minutes
Semi major axis: 26533 km
RCS: 8.1788 m2 (large)
Launch date: July 25, 1990
Source: Commonwealth of Independent States (former USSR) (CIS)
Launch site: PLESETSK MISSILE AND SPACE COMPLEX (PKMTR)
Your satellite tracking list
Your tracking list is empty





NASA's NSSDC Master Catalog

Two Line Element Set (TLE):
1 20707U 90064A   17179.44026366 -.00000805 +00000-0 +00000-0 0  9995
2 20707 068.6541 021.9613 6043131 117.6034 298.4716 02.00869604197155
Source of the keplerian elements: AFSPC